Location: Newark
(46.7000°N, 60.6000°W)
Time: 05:06:16
(UTC+00:00)

Transit 2A Rocket - Pass Details

Date: 31 October 2020
Orbit: 588 x 914 km, 66.7° (Epoch: 29 November)

Event Time Altitude Azimuth Distance (km) Brightness Sun altitude
Rises 11:57:09 0° 180° (S) 3,531 8.9 10.3°
Reaches altitude 10° 11:59:56 10° 170° (S) 2,596 8.5 10.7°
Maximum altitude 12:05:10 31° 111° (ESE) 1,531 8.1 11.5°
Drops below altitude 10° 12:10:17 10° 51° (NE) 2,536 7.9 12.2°
Sets 12:12:58 0° 42° (NE) 3,439 8.4 12.5°
